Location: Flynn Junction
(40.1314°N, 99.5162°W)
Time: 21:44:26
(UTC+00:00)

S3M - Pass Details

Date: 29 October 2020
Orbit: 950 x 1003 km, 83.0° (Epoch: 30 November)

Event Time Altitude Azimuth Distance (km) Brightness Sun altitude
Rises 12:25:46 0° 351° (N) 3,697 6.8 -8.0°
Reaches altitude 10° 12:28:16 10° 351° (N) 2,752 6.2 -7.6°
Maximum altitude 12:34:36 81° 266° (W) 1,012 4.1 -6.4°
Drops below altitude 10° 12:40:57 10° 179° (S) 2,762 6.6 -5.2°
Sets 12:43:29 0° 178° (S) 3,711 7.3 -4.7°
